Location: Sungai Apap
(2.6167°N, 113.3833°E)
Time: 14:41:43
(UTC+00:00)

Cosmos 2366 rocket - Pass Details

Date: 25 May 2024
Orbit: 954 x 997 km, 82.9° (Epoch: 12 June)

Event Time Altitude Azimuth Distance (km) Brightness Sun altitude
Exits shadow 20:08:29 72° 332° (NNW) 1,042 4.0 -30.1°
Drops below altitude 10° 20:14:11 10° 360° (N) 2,754 6.6 -28.8°
Sets 20:16:43 0° 1° (N) 3,701 7.4 -28.2°
